Regional Weather Roundup
Issued by NWS

Home | Current Version | Previous Version | Graphics & Text | Print | Product List | Glossary On
Versions: 1 2 3 4 5 6 7 8 9 10 11 12 13 14 15 16 17 18 19 20 21 22 23 24 25 26 27 28 29 30 31 32 33 34 35 36 37 38 39 40 41 42 43 44 45 46 47 48 49 50
000
ASUS45 KTFX 022310
RWRMT
MONTANA REGIONAL WEATHER ROUNDUP
NATIONAL WEATHER SERVICE GREAT FALLS MT
400 PM MST FRI DEC 02 2016

NOTE: "FAIR" INDICATES FEW OR NO CLOUDS BELOW 12000 FEET WITH NO
SIGNIFICANT WEATHER AND/OR OBSTRUCTIONS TO VISIBILITY.

MTZ001>007-043-030000-
WEST OF THE DIVIDE

CITY           SKY/WX    TMP DP  RH WIND       PRES   REMARKS
KALISPELL      FLURRIES  34  24  67 S9        30.14F WCI  27
MISSOULA       CLOUDY    33  29  85 SE3       30.19F
BUTTE          CLEAR     28  11  48 W5        30.09F
MULLAN PASS    CLOUDY    21  18  88 VRB5      30.07F
ANACONDA         N/A     28  12  50 SW6       30.11F WCI  22
DEER LODGE       N/A     30  14  51 NE3       30.13F
EUREKA           N/A     34  27  75 SE9       30.12F WCI  26
HAMILTON         N/A     36  14  41 NW3       30.19F
LIBBY            N/A     36  27  69 SE5       30.13F
PLAINS           N/A     38  23  55 CALM      30.18F
RONAN            N/A     34  24  67 CALM      30.18F
$$

MTZ008-052>055-030000-
SOUTHWEST MONTANA

CITY           SKY/WX    TMP DP  RH WIND       PRES   REMARKS
BOZEMAN        CLEAR     32  19  58 SE5       30.12F
DILLON         CLEAR     32  10  40 SW17      30.11F WCI  21
W YELLOWSTONE  PTCLDY    19  14  79 SW14      30.15S WCI   6
ENNIS          CLEAR     28  16  59 S9        30.18S WCI  20
$$

MTZ009-010-012-014-046-048-049-054-030000-
EAST SLOPES AND CENTRAL MONTANA

CITY           SKY/WX    TMP DP  RH WIND       PRES   REMARKS
CUT BANK       PTCLDY    32  18  56 W32G43    29.89F WCI  17
GREAT FALLS    CLEAR     31  19  61 SW20      29.98F WCI  19
MALMSTROM AFB  CLEAR     30  22  73 SW17G28   29.99F WCI  18
HELENA         CLEAR     34  14  43 W12       30.10F WCI  25
AUGUSTA          N/A     30  16  55 W24G36    29.93F WCI  16
BOWMANS CRNR     N/A     28  17  62 SW18G28   29.96F WCI  15
CHOTEAU          N/A     34  18  51 W10G23    29.95F WCI  26
CONRAD           N/A     33  28  82 SW2       29.95F
FAIRFIELD        N/A     32  16  52 SW17G23   29.94F WCI  21
POWER            N/A     31  20  62 SW15G25   29.94F WCI  20
RAYNESFORD       N/A     30  17  58 SW7G16    30.00F WCI  23
ULM              N/A     31  19  61 W5G16     30.00F
$$

MTZ011-013-016-021-045-047-050-051-030000-
NORTH CENTRAL MONTANA

CITY           SKY/WX    TMP DP  RH WIND       PRES   REMARKS
HAVRE          CLEAR     36  27  69 SW15      29.96F WCI  27
LEWISTOWN      CLEAR     30  20  66 SW10      30.01F WCI  21
N BAR RANCH      N/A     34  12  40 SW9       30.00F WCI  26
CHINOOK          N/A     39  25  56 S7        29.98F
DENTON           N/A     33  21  61 W16G31    29.97F WCI  23
GEYSER           N/A     29  19  63 SW9       29.99F WCI  21
GRASS RANGE      N/A     34  18  53 W10G18    29.97F WCI  26
JUDITH GAP       N/A     28  16  60 SW23G38   30.01F WCI  14
ROY              N/A     34  19  54 MISG      29.99F
STANFORD         N/A     31  18  60 SW6       29.99F WCI  25
WINIFRED         N/A     34  22  61 MISG      29.99F
$$

MTZ017>020-022>027-061-062-030000-
NORTHEAST MONTANA

CITY           SKY/WX    TMP DP  RH WIND       PRES   REMARKS
GLASGOW        CLEAR     35  25  66 S8        30.03F WCI  29
JORDAN           N/A     39  23  52 W5        30.04F
SIDNEY         CLEAR     29  25  85 SW13      30.13F WCI  19
WOLF POINT     CLEAR     36  27  69 CALM      30.08F
PLENTYWOOD       N/A     28  28 100 S10       30.08F WCI  19
POPLAR           N/A     34  27  75 SE5       30.09F
SCOBEY           N/A     31  20  63 SW8       30.03F WCI  24
$$

MTZ028>42-056>058-030000-
SOUTHCENTRAL AND SOUTHEAST MONTANA

CITY           SKY/WX    TMP DP  RH WIND       PRES   REMARKS
BAKER          CLEAR     28  24  85 SW7       30.15S WCI  21
BILLINGS       PTCLDY    39  15  37 SW12      30.06F WCI  32
LIVINGSTON     CLEAR     32  16  51 W15       30.07F WCI  22
MILES CITY     CLEAR     36  27  69 SE8       30.11F WCI  30
BIG TIMBER     CLEAR     34  14  44 W20G29    30.07F WCI  22
EKALAKA          N/A     30  25  82 S3        30.09F
FORSYTH          N/A     41  25  52 CALM      30.10F
HARLOWTON        N/A     33  12  41 W25G36    30.03F WCI  20
LAUREL           N/A     39  13  34 S5        30.04F
ROUNDUP          N/A     40  13  33 S9        29.95F
$$

REGIONAL REPORTS...DAKOTAS

CITY           SKY/WX    TMP DP  RH WIND       PRES   REMARKS
WILLISTON      CLOUDY    31  25  78 S6        30.13F WCI  25
MINOT          CLOUDY    28  24  85 SE9       30.17S WCI  19
DICKINSON      CLOUDY    29  25  85 S6        30.13F WCI  23
BEACH            N/A     27  27 100 SW8       30.16F WCI  18
CROSBY         CLOUDY    28  28 100 S8        30.13S WCI  20
TIOGA          CLOUDY    27  27 100 S12       30.13F WCI  16
WATFORD CITY     N/A     30  27  86 S6        30.14F WCI  24
BISMARCK       CLOUDY    26  21  81 S6        30.24S WCI  19
GRAND FORKS    CLOUDY    32  23  69 W5        30.26S
FARGO          CLOUDY    30  20  66 NW9       30.28S WCI  22
BUFFALO SD       N/A     33  28  81 W8        30.10S WCI  26
RAPID CITY     PTCLDY    34  25  69 E7        30.18F WCI  28
$$

REGIONAL REPORTS...WYOMING/IDAHO/WASHINGTON

CITY           SKY/WX    TMP DP  RH WIND       PRES   REMARKS
GILLETTE       CLEAR     34  18  52 S3        30.13F
SHERIDAN       CLEAR     36  22  56 S9        30.11F WCI  29
BUFFALO WY     CLEAR     35  19  52 E7        30.10F WCI  29
CODY           CLEAR     34   6  31 W9        30.08F WCI  27
YELLOWSTONE LA   N/A     18   9  68 VRB5      30.11S
IDAHO FALLS    CLOUDY    24  19  81 SW12      30.28S WCI  13
SALMON         CLOUDY    34  16  47 N3        30.20S
BOISE          PTCLDY    37  22  54 CALM      30.34F
SPOKANE        FLURRIES  35  32  88 S10       30.15F WCI  27
$$

REGIONAL REPORTS...ALBERTA

CITY           SKY/WX    TMP DP  RH WIND       PRES   REMARKS
EDMONTON       MOCLDY    27  23  86 S10       29.73F WCI  17
CALGARY        MOCLDY    39  19  45 W20G30    29.73F WCI  30
LETHBRIDGE     MOCLDY    39  19  45 W32G49    29.81S WCI  27
MEDICINE HAT   PTCLDY    37  25  60 S14       29.85F WCI  29
WATERTON GATE    N/A     32  19  59 SW30G43     N/A  WCI  18
CARDSTON         N/A     36  19  51 W18G29      N/A  WCI  25
MILK RIVER       N/A     36  21  55 SW15G21     N/A  WCI  26
$$

REGIONAL REPORTS...SASKATCHEWAN

CITY           SKY/WX    TMP DP  RH WIND       PRES   REMARKS
SWIFT CURRENT  CLEAR     23  21  93 S7        29.93F WCI  15
REGINA         CLOUDY    27  23  86 SE10      30.05F WCI  17
SASKATOON      FLURRIES  27  23  86 S9        30.01F WCI  17
CYPRESS HILLS    N/A     27  23  86 S8          N/A  WCI  18
ROCKGLEN         N/A     27  25  93 SW7         N/A  WCI  19
ASSINIBOIA       N/A     28  27  93 S13         N/A  WCI  18
$$



USA.gov is the U.S. government's official web portal to all federal, state and local government web resources and services.